sat.trackr.live / text

‹ back to catalog

STARLINK-5635

NORAD 55367 · 2023-013AN

PAYLOAD ACTIVE UNKNOWN

§ Identity

Operator
Country
US
Launch date
2023-01-26
Launch site
AFETR
Launch vehicle
Mass (kg)
RCS (m²)

Purposes: comms

External: N2YO · Heavens-Above · Gunter

§ Orbital elements

Epoch: 2026-05-25T05:04:44.762880Z

Period
94.27 min
Inclination
43.0010°
Eccentricity
0.0001351
Mean motion
15.27573240 rev/d
Perigee alt
482.1 km
Apogee alt
484.0 km
Semi-major
6,861.2 km
B*
5.6898e-6
RAAN
216.7716°
Arg perigee
271.9545°
Mean anomaly
88.1152°
Rev number
18,354

§ Raw data

STARLINK-56351 55367U 23013AN  26145.21162920 -.00000106  00000+0  56898-5 0  99942 55367  43.0010 216.7716 0001351 271.9545  88.1152 15.27573240183541

JSON: /api/v1/satellites/55367 · /tle

For live sub-satellite position, see the globe view (requires WebGL).

§ Visibility from observer

Set your observer location to see the next 7 days of passes ≥ 10°. The values pass through the URL so the page stays shareable.

No JS? Fill the form by hand. The geolocation button needs JavaScript.